This is the latest recevied weather packets stored in our database for station/object SQ9RHX-11. If no packets are shown the sender has not sent any weather packets the latest 10 day(s).
| Time | Temp. | Humidity | Pressure | Rain* | Wind** | Luminosity | Snow |
|---|---|---|---|---|---|---|---|
| 1788016131 | 26.11° C | 38% | 1016.2 hPa | - | - | - | - |
| 1788014332 | 25.56° C | 38% | 1016.2 hPa | - | - | - | - |
| 1788012532 | 26.11° C | 37% | 1016.1 hPa | - | - | - | - |
| 1788010732 | 27.22° C | 37% | 1016.3 hPa | - | - | - | - |
| 1788008934 | 28.89° C | 37% | 1016.3 hPa | - | - | - | - |
| 1788007134 | 26.11° C | 42% | 1016.1 hPa | - | - | - | - |
| 1788005334 | 25.56° C | 45% | 1016 hPa | - | - | - | - |
| 1788003534 | 26.11° C | 47% | 1016 hPa | - | - | - | - |
| 1788001734 | 25° C | 48% | 1016.2 hPa | - | - | - | - |
| 1787999934 | 25° C | 51% | 1016.1 hPa | - | - | - | - |
| 1787998134 | 23.89° C | 53% | 1016.1 hPa | - | - | - | - |
| 1787996334 | 23.89° C | 58% | 1016.2 hPa | - | - | - | - |
| 1787994534 | 22.78° C | 61% | 1016.1 hPa | - | - | - | - |
| 1787992734 | 22.78° C | 67% | 1015.9 hPa | - | - | - | - |
| 1787990934 | 20° C | 75% | 1015.9 hPa | - | - | - | - |
| 1787989139 | 19.44° C | 80% | 1015.6 hPa | - | - | - | - |
| 1787987334 | 18.89° C | 87% | 1015.6 hPa | - | - | - | - |
| 1787983734 | 17.78° C | 91% | 1015.1 hPa | - | - | - | - |
| 1787981934 | 16.67° C | 91% | 1015 hPa | - | - | - | - |
| 1787980134 | 16.11° C | 91% | 1015 hPa | - | - | - | - |
| 1787978334 | 16.11° C | 91% | 1014.9 hPa | - | - | - | - |
| 1787976534 | 16.11° C | 90% | 1013.9 hPa | - | - | - | - |
| 1787974734 | 16.11° C | 90% | 1014.1 hPa | - | - | - | - |
| 1787972934 | 16.11° C | 89% | 1014.3 hPa | - | - | - | - |
| 1787971135 | 16.11° C | 89% | 1014.2 hPa | - | - | - | - |
* Rain since midnight (hover to see other rain measurements)
** Current wind speed in m/s (hover to see current wind gust speed)